TimeMDT,TemperatureF,Dew PointF,Humidity,Sea Level PressureIn,VisibilityMPH,Wind Direction,Wind SpeedMPH,Gust SpeedMPH,PrecipitationIn,Events,Conditions,WindDirDegrees,DateUTC
12:53 AM,27.0,24.1,89,30.46,10.0,Calm,Calm,-,N/A,,Mostly Cloudy,0,2013-10-05 06:53:00
1:53 AM,26.1,23.0,88,30.44,10.0,East,4.6,-,N/A,,Clear,80,2013-10-05 07:53:00
2:53 AM,23.0,21.9,96,30.44,10.0,NNW,4.6,-,N/A,,Clear,330,2013-10-05 08:53:00
3:53 AM,21.9,19.0,89,30.45,10.0,West,5.8,-,N/A,,Clear,270,2013-10-05 09:53:00
4:53 AM,23.0,19.0,85,30.45,10.0,WSW,4.6,-,N/A,,Clear,250,2013-10-05 10:53:00
5:53 AM,21.0,18.0,88,30.45,10.0,Calm,Calm,-,N/A,,Clear,0,2013-10-05 11:53:00
6:16 AM,17.6,17.6,100,30.31,2.0,East,3.5,-,N/A,,Clear,100,2013-10-05 12:16:00
6:24 AM,17.6,15.8,93,30.31,8.0,Calm,Calm,-,N/A,,Clear,0,2013-10-05 12:24:00
6:53 AM,17.1,16.0,96,30.47,9.0,NW,6.9,-,N/A,,Clear,310,2013-10-05 12:53:00
7:53 AM,14.0,14.0,100,30.48,9.0,South,4.6,-,N/A,,Clear,180,2013-10-05 13:53:00
8:53 AM,24.1,19.0,81,30.43,10.0,Calm,Calm,-,N/A,,Clear,0,2013-10-05 14:53:00
9:53 AM,26.1,19.9,78,30.41,10.0,North,4.6,-,N/A,,Clear,350,2013-10-05 15:53:00
10:53 AM,28.9,21.0,72,30.42,10.0,WNW,3.5,-,N/A,,Clear,290,2013-10-05 16:53:00
11:53 AM,36.0,24.1,62,30.38,10.0,Calm,Calm,-,N/A,,Clear,0,2013-10-05 17:53:00
12:53 PM,32.0,25.0,75,30.39,9.0,Calm,Calm,-,N/A,,Clear,0,2013-10-05 18:53:00
1:53 PM,34.0,27.0,75,30.37,10.0,East,3.5,-,N/A,,Clear,100,2013-10-05 19:53:00
2:53 PM,37.0,24.1,59,30.38,10.0,Calm,Calm,-,N/A,,Clear,0,2013-10-05 20:53:00
3:53 PM,35.1,27.0,72,30.37,10.0,Calm,Calm,-,0.00,Rain,Light Rain,0,2013-10-05 21:53:00
4:53 PM,35.1,28.0,76,30.38,10.0,West,3.5,-,0.00,,Clear,270,2013-10-05 22:53:00
5:53 PM,34.0,28.9,82,30.39,8.0,Calm,Calm,-,N/A,,Clear,0,2013-10-05 23:53:00
6:53 PM,32.0,27.0,82,30.43,8.0,Calm,Calm,-,N/A,,Clear,0,2013-10-06 00:53:00
7:53 PM,32.0,28.0,85,30.47,9.0,WNW,4.6,-,N/A,,Clear,300,2013-10-06 01:53:00
8:53 PM,33.1,26.1,75,30.43,10.0,Calm,Calm,-,N/A,,Clear,0,2013-10-06 02:53:00
9:53 PM,33.1,26.1,75,30.41,10.0,Calm,Calm,-,N/A,,Clear,0,2013-10-06 03:53:00
10:53 PM,28.9,25.0,85,30.41,10.0,West,4.6,-,N/A,,Clear,280,2013-10-06 04:53:00
11:53 PM,32.0,24.1,73,30.39,10.0,NW,3.5,-,N/A,,Clear,320,2013-10-06 05:53:00